Regional Weather Roundup
Issued by NWS

Home | Current Version | Previous Version | Text Only | Print | Product List | Glossary On
Versions: 1 2 3 4 5 6 7 8 9 10 11 12 13 14 15 16 17 18 19 20 21 22 23 24 25 26 27 28 29 30 31 32 33 34 35 36 37 38 39 40 41 42 43 44 45 46 47 48 49 50
000
ASUS45 KREV 261010
RWRNV
NEVADA REGIONAL WEATHER ROUNDUP
NATIONAL WEATHER SERVICE RENO NV
300 AM PDT FRI AUG 26 2016

NOTE: "FAIR" INDICATES FEW OR NO CLOUDS BELOW 12,000 FEET WITH NO
SIGNIFICANT WEATHER AND/OR OBSTRUCTIONS TO VISIBILITY.

NVZ001-003-004-261100-
WESTERN NEVADA

CITY           SKY/WX    TMP DP  RH WIND       PRES   REMARKS
RENO           FAIR      59  33  37 CALM      30.05S
CARSON CITY    FAIR      54  25  32 CALM      30.08S
MINDEN         FAIR      43  27  52 SE9       30.08S
PYRAMID LAKE     N/A     72 N/A N/A W6          N/A
FALLON         FAIR      55  31  39 CALM      30.00R
LOVELOCK       FAIR      47  20  34 S7        30.01S
$$

NVZ002-CAZ072-073-261100-
NORTHERN AND CENTRAL SIERRA

CITY           SKY/WX    TMP DP  RH WIND       PRES   REMARKS
S. LAKE TAHOE  FAIR      42  31  64 SW3       30.16S
TRUCKEE        FAIR      41  30  65 CALM      30.16S
SQUAW VLY 8000 NOT AVBL
MAMMOTH LAKES  FAIR      49  22  34 CALM      30.21S
BRIDGEPORT       N/A     41  22  46 CALM      30.18S HAZE
$$

NVZ030-031-036-261100-
NORTHERN NEVADA

CITY           SKY/WX    TMP DP  RH WIND       PRES   REMARKS
ELKO           FAIR      47  22  37 CALM      30.08S
WINNEMUCCA     FAIR      42  18  37 SE8       30.04S
WENDOVER       FAIR      64  27  24 E5        30.02S
$$

NVZ035-037-261100-
CENTRAL NEVADA

CITY           SKY/WX    TMP DP  RH WIND       PRES   REMARKS
ELY            FAIR      43  30  60 S3        30.14S
EUREKA           N/A     44  17  33 S6        30.12S
$$

NVZ013-014-261100-
SOUTH CENTRAL NEVADA

CITY           SKY/WX    TMP DP  RH WIND       PRES   REMARKS
TONOPAH        FAIR      62  15  16 N15       30.08S
$$

NVZ017-020-022-261100-
SOUTHERN NEVADA

CITY           SKY/WX    TMP DP  RH WIND       PRES   REMARKS
LAS VEGAS      FAIR      83  41  22 NE7       29.84R
N. LAS VEGAS   FAIR      81  46  29 E9        29.86R
NELLIS AFB     FAIR      81  50  33 N18       29.85R
HENDERSON      FAIR      79  37  22 S8        29.90R
MERCURY        FAIR      75  32  20 NE8       29.91S
$$



USA.gov is the U.S. government's official web portal to all federal, state and local government web resources and services.